TIMESTAMP,CO2_1_1_1,H2O_1_1_1,TAU_1_1_1,TAU_SSITC_TEST_1_1_1,H_1_1_1,H_SSITC_TEST_1_1_1,LE_1_1_1,LE_SSITC_TEST_1_1_1,FC_1_1_1,FC_SSITC_TEST_1_1_1,WD_0_0_1,WS_0_0_1,WS_MAX_0_0_1,U_SIGMA_0_0_1,V_SIGMA_0_0_1,W_SIGMA_0_0_1,USTAR_0_0_1,MO_LENGTH_0_0_1,ZL_0_0_1,FETCH_MAX_0_0_1,FETCH_70_0_0_1,FETCH_80_0_0_1,FETCH_90_0_0_1,PA_0_0_1,RH_0_0_1,TA_0_0_1,VPD_0_0_1,T_SONIC_0_0_1,T_SONIC_SIGMA_0_0_1
[yyyymmddHHMMSS],[mmolCO2 mol-1],[mmolH2O mol-1],[kg m-1 s-2],[#],[W m-2],[#],[W m-2],[#],[umolCO2 m-2 s-1],[#],[Decimal degrees],[m s-1],[m s-1],[m s-1],[m s-1],[m s-1],[m s-1],[m],[#],[m],[m],[m],[m],[kPa],[%],[deg C],[hPa],[deg C],[deg C]
20220918003000,416.86583223437611,20.837867430013382,5.0939061908353768E-002,0,-17.185723736573447,0,2.8604482961556439,1,1.6665185600161125,0,187.79495640943583,1.5025017379668444,3.9066710631209562,0.51044745295216642,0.44241382587241335,0.34627955932286802,0.21539719527974804,48.335151931394705,0.39308865785645947,85.645677670848286,156.58761407020967,187.39538100737070,234.59677987636817,93.210768269531258,81.865517241379308,20.288620689655147,4.3036802820735991,21.191836242675777,0.14501943505207648
20220918010000,419.29616705869483,21.068274408365482,3.9933398989772988E-002,0,-18.846409268750104,0,3.0127946626105073,0,2.4492719571821144,0,186.38007158869257,1.5091141416455243,3.6388418629352492,0.48520022719663530,0.44655964697885914,0.34982615328922417,0.19065855924041916,30.570569005926991,0.62151280194739911,94.275613033200386,822.00000000000000,1484.0000000000000,3888.0000000000000,93.221543133246527,83.616666666666660,20.125999999999976,3.8492059644307255,21.050481996324379,0.18111813113220793
20220918013000,425.88391975334656,21.124009088225975,0.10710102643884570,0,-46.512960359682069,0,1.2742490988462851,0,11.272025465124299,0,189.99280357799887,1.8634172427256959,5.3642138521459506,0.64231201503699109,0.55885560316761640,0.44802359156844446,0.31192163861022065,54.245085665659282,0.35026214387616411,93.723952692013683,171.35727724257339,205.07089560008069,256.72442669357775,93.232003473428122,86.843333333333334,19.559666666666658,2.9844700761423248,20.485734573367608,0.26712159712150635
20220918020000,429.95392560383351,21.130210322000949,8.4475275191709678E-002,0,-41.031090119075166,0,-1.3369060336659000,1,12.803082642263758,0,189.64050705448179,1.7005531400454843,4.0775457641769037,0.56644070428992666,0.54174242968287978,0.42395625604385195,0.27692514610941077,43.029669187642547,0.44155579995619637,89.061083840588211,162.83206583642277,194.86839491629311,243.95210651024905,93.231143413194445,87.993333333333339,19.352666666666664,2.6887721039404848,20.307764700995563,0.22535514595052347
20220918023000,430.10252147557327,21.198770658080107,7.8971371192740267E-002,0,-21.836381087122867,0,2.3559118309747804,0,7.7621393573683832,0,197.48210515426132,1.5947738427047020,4.4683963555109809,0.53965332058479076,0.47367189105047458,0.37323516825291614,0.26778997271280042,73.122999797055442,0.25983616718039926,96.007310052088130,175.53198273626825,210.06695184137280,262.97889625407487,93.246631952907990,87.613333333333330,19.476999999999975,2.7954038349502275,20.437469382392067,0.16142239921800272
20220918030000,430.90773612483935,21.130078247023601,4.2020280226684643E-002,0,-16.379405622119300,0,3.8505641379887732,0,2.9326572205795953,0,199.85297427230333,1.3753681469226318,3.1135462919893429,0.43929331071896438,0.39108209219988133,0.29815211187832352,0.19535707376382674,37.843607630316868,0.50206629837211725,75.905280472908501,652.00000000000000,1173.0000000000000,3050.0000000000000,93.233621227033552,87.203333333333333,19.497999999999990,2.8917044850462252,20.460691620237696,0.13063878680861182
20220918033000,432.00112887193939,21.034412742903942,4.6391933419267076E-002,1,-17.363822061519670,0,1.7095989402688012,1,3.4565108004304270,0,195.21531184884128,1.3896392519215595,3.0700097575651584,0.40578159367438937,0.36320427929523924,0.27696678398675895,0.20521366634374211,41.374220544782141,0.45922315272223690,98.509422453522077,180.10664221391033,215.54165085177689,269.83256976368301,93.222180699652782,87.773333333333341,19.318333333333328,2.7321944783629193,20.253054260253975,0.19456957359503857
20220918040000,439.39212380812864,20.942394187263844,5.5963583873370741E-002,0,-25.619625423388609,0,-2.5089090127878002,1,11.639768253547114,0,196.31205303095808,1.8175194548287872,3.9182615633588078,0.52751829528650185,0.47218311267158047,0.34123856183664092,0.22516311888025103,37.040061936318139,0.51295810554167343,89.785503418486044,164.15653586659434,196.45344726804271,245.93640396548511,93.224582159939231,90.583333333333329,18.743333333333339,2.0301220766758070,19.663917714436820,0.27045012909882066
20220918043000,441.42819589639663,20.981598744358653,7.9761551016808749E-002,0,-39.578886684170961,0,-3.5360951333230397,1,15.636941360201106,0,201.54684977500969,2.2137241235470717,5.3290062335526054,0.67235082406202196,0.59250634070294306,0.45022234065560746,0.26867050301748924,40.732896283257098,0.46645345000448163,82.849378972903224,151.47508821663831,181.27699331796848,226.93728452353170,93.223202805555559,92.506666666666661,18.437333333333356,1.5848242073538312,19.349788388570175,0.25650645943533645
20220918050000,440.17690794077640,21.071515085356378,0.11523876803619822,0,-35.626814006194927,0,-5.2651734823829122,0,12.423954050471993,0,209.54441788914167,2.0746776075469557,5.6283540785722179,0.78929208568501741,0.59382266017486607,0.47821594259695260,0.32284698985407251,78.523465111040139,0.24196588845298758,91.443544718761260,167.18796416864785,200.08129270800922,250.47803596052259,93.232630520616325,93.786666666666662,18.288000000000011,1.3018583507854122,19.213167222764753,0.19779881554988241
20220918053000,437.53002524239059,21.310657465687314,0.13919087884299294,0,-29.815529326573557,0,-5.0702902131788301,0,10.929091870059175,0,212.99287155016276,1.9183406321757286,4.6143597540896897,0.74653558344215476,0.63211241012287223,0.49455558326798726,0.35492985551778977,124.66580285507722,0.15240747313910388,96.027768827908758,175.56938790346024,210.11171627308860,263.03493601064235,93.219528093532986,94.126666666666665,18.408000000000015,1.2399158111900921,19.359159209357358,0.17878661840911556
20220918060000,437.71686258335365,21.241803304929434,5.7399198744265363E-002,0,-19.528904953981201,0,-2.0133237067891367,0,6.4292107682453414,0,212.52497461972658,1.8239671313462043,3.7908766432673153,0.53487107401406775,0.42047425921862125,0.34970068705005064,0.22783488035332841,50.339101775052981,0.37744018725054024,88.877919903865063,162.49718374295145,194.46762658048803,243.45039211072188,93.209815378906256,95.299999999999997,18.157333333333327,0.97672986554313868,19.072623675028581,0.19095320572934849
20220918063000,441.12133944759864,21.105660228062906,4.1050124735040425E-002,0,-18.500773281005351,0,0.58085269458746247,1,12.412627469456856,0,204.37034822836799,1.6881453021081092,3.3236937561583857,0.43364481392250692,0.33810841930876884,0.28772203945868857,0.19256397200261879,32.078172816648916,0.59230306254035758,114.04925984625838,1023.0000000000000,1861.0000000000000,4945.0000000000000,93.199272742886677,96.799999999999997,17.805000000000007,0.65043299820646094,18.715443382241915,0.23415205573222120
20220918070000,443.19968474627251,20.990035728337123,7.6046797013039236E-002,0,-18.557979751020007,0,7.6585882786258178E-004,2,5.7468658499396632,0,211.89309476530758,2.2243966887288020,4.6628576573146869,0.64453666176189695,0.46431876586599885,0.36878061933912598,0.26194281956533133,80.502450227872728,0.23601766090619616,95.236982499179874,174.12357828617999,208.38145142613288,260.86884974294975,93.216374357204856,97.946666666666673,17.533999999999992,0.41029068867664592,18.410229706658299,0.17431216037941555
20220918073000,442.63263613741759,21.089635328635961,0.15633436378722992,0,-24.663911358494122,0,2.6932000416739013,2,15.189254327579892,0,212.71688641475362,2.1903561953741049,4.7982888482423327,0.76655023671262856,0.68858291932713522,0.48552337448246957,0.37559557427443990,178.56140984269410,0.10640596989426936,101.96782562709728,186.42970621632537,223.10874352958777,279.30567185241938,93.204386628472221,98.473333333333329,17.521999999999991,0.30482282692923263,18.402345219930055,0.15296096634780407
20220918080000,440.43355923186800,21.137592618421820,0.10833907033996988,0,-17.057927118887360,0,1.3732254699998876,2,7.1182737474541478,0,213.00705033914875,2.2877169480907358,4.9043502986060012,0.64200190932403611,0.61427170537532549,0.46014249202943552,0.31271910706220124,148.99179284084690,0.12752380273922745,91.931545549891467,168.08018532783623,201.14905355909400,251.81474584096884,93.184332896484378,98.526666666666671,17.545999999999992,0.29461993396769232,18.369754427591943,0.13226538047106226
20220918083000,443.16903102207289,21.101760333012361,0.20071547173039575,0,-18.104594513771744,0,1.7936794300441405,2,19.248306439815256,0,195.27923690718291,2.2584241823878037,6.2147206500182994,0.86374678156122431,0.84375052573953468,0.61305355205771983,0.42566277709982242,353.93623415488202,5.3681986093816060E-002,93.520906679076973,170.98604437272067,204.62662466906494,256.16825220705255,93.152742909722235,98.803333333333342,17.469333333333338,0.23814003328036507,18.291571732415150,0.16536024128219051
20220918090000,442.10632405647976,21.343462510535861,0.10141513309874088,0,-23.499198732632010,0,-0.69581476387003505,2,4.0389779598893574,1,218.86782781727243,1.7547281011932636,6.4942984760757394,0.74784235471890481,0.70982258175829316,0.47575218804053132,0.30265139183111023,98.037855201949910,0.19380268938831396,87.197574504828850,159.42497643483534,190.79097908536809,238.84766573369487,93.177233439236105,98.676666666666662,17.674333333333323,0.26677550333339239,18.946921223958384,0.33808273228200636
20220918093000,443.76661997645311,21.380488245281871,0.13952272450018691,0,-20.836901581249084,0,0.62036929334304125,2,14.685777909931831,0,181.78781503778791,1.8103936713186672,4.8140337297305216,0.77928330212261776,0.67136223629896741,0.51441969913244667,0.35507265806972160,178.50668427876536,0.10643859123128749,93.079622225917205,170.17923565188681,203.66108069204935,254.95950572344540,93.151348713107637,98.486666666666665,17.728000000000009,0.30611203498869827,19.085049866570444,0.12524248499736629
20220918100000,442.84562746159145,21.431397347321560,0.17576612069297798,0,-15.359214594772103,0,-2.8348501299290314,1,11.818240420680487,0,195.50338040116688,2.3760218381190157,6.3886270784910844,0.93569696608356112,0.84018146560442775,0.62003158446978834,0.39851465171543810,342.43334714804865,5.5485250365483484E-002,87.918300406782805,160.74269324734396,192.36794956037102,240.82184563827445,93.172962779947923,98.510000000000005,17.765666666666675,0.30210841522359261,19.034498441060407,9.7781419007281378E-002
20220918103000,442.82876575344665,21.567681652758488,0.32195572681629414,0,-18.884781674209552,0,-1.7390555810910124,1,10.531091129981707,0,202.78643938710985,2.4726413986171405,6.3352379329746835,1.0702460266647744,0.83130718153826288,0.69101463084101933,0.53950075448118051,690.92095041684763,2.7499527968484507E-002,102.72088458423144,187.80653816580244,224.75645972532524,281.36841700436605,93.155133863715278,98.579999999999998,17.851999999999975,0.28948513562435663,19.004535339355471,7.5873641403667036E-002
20220918110000,442.14756278607069,21.678970378457926,0.37506538658697181,0,-23.410875696151514,0,-2.1183835622683103,1,10.422278869486121,0,204.46430310415826,2.8168070944556729,7.8279891963905790,1.1924878585770766,0.96964000232386904,0.75961734923996160,0.58246282990177556,701.28689011172685,2.7093048890409144E-002,101.24965973024325,185.11666990961118,221.53737442460292,277.33850419841968,93.135669445529516,98.516666666666666,17.940666666666687,0.30408865597460139,18.967677777608230,7.9199591464204550E-002
20220918113000,441.73946811367307,21.710810730228946,0.26733657057511445,0,-19.405134020201270,0,-3.2571526925468550,1,7.8317207101271826,0,209.11759407163572,2.8397998627799219,7.0197657233526209,1.1047705137801327,1.0227999589568475,0.79750239983351690,0.49186101120377634,509.37852043830333,3.7300355703360107E-002,85.063494410163685,155.52319739185057,186.12154609918781,233.00208973007233,93.111196748046879,98.313333333333333,17.992666666666651,0.34690556766379133,18.875712997436551,8.5850965875715335E-002
20220918120000,441.36018543634515,21.670130294690665,0.27000522396860338,0,-17.966169255274895,0,-1.5491317596446523,1,6.7973210950104805,0,228.42220569080507,2.6767734132260466,7.5482454878435075,1.2226317683654753,0.96688572290000341,0.73947470522169856,0.49427764827787241,558.41231265681517,3.4025037717384424E-002,90.717906369055811,165.86126583490466,198.49357364600107,248.49040010048617,93.132346685168017,97.950000000000003,18.025333333333322,0.42250122135387985,18.800486396984184,8.7862447100646751E-002
20220918123000,441.48439732735744,21.619137956137735,0.19015399814978554,0,-8.8704903976805269,0,0.95283019844332739,1,3.6049027878339963,0,220.68536209858121,2.4139123155817130,6.3210245850687992,1.0326084098986998,0.77735425361390575,0.61017275374595514,0.41476173211062567,668.32100233791039,2.8429452214631126E-002,91.945736215029640,168.10613038958934,201.18010317155125,251.85361627128427,93.145318634548616,97.769999999999996,18.019333333333293,0.45942553811959214,18.702771460639156,7.3880711962723083E-002
20220918130000,441.93993473225771,21.613978205045139,0.30311561751792931,0,-14.373027561946486,0,3.5264831647812249,1,5.9837094464822753,0,214.78229070529352,2.7761108785681787,7.5655490679816495,1.1191430937075515,0.96138013791223287,0.74172291407092772,0.52363235051267809,830.05258550107999,2.2890116038287167E-002,94.772583350855683,173.27450853053165,207.36533178406327,259.59678852822174,93.156767475911465,97.730000000000004,18.024000000000001,0.46780359726784582,18.614859868367546,6.7582560187791907E-002
20220918133000,441.84889219252511,21.707630102295969,0.24968199400155491,0,-4.6586040386863958,0,3.4274671666650849,0,2.9660743906722797,0,213.09317987265842,2.2784649726085067,6.7091903237161707,1.0850662858567353,0.77433678001748707,0.62763882818342009,0.47529834294921791,1915.3700616292388,9.9197540885850293E-003,100.24439466351805,183.27872475478861,219.33782349202281,274.58492743903804,93.164927205887466,97.653333333333336,18.106666666666683,0.48612244439895225,18.564688840820111,4.7946005233391986E-002
20220918140000,439.25311938067904,21.818920237154117,0.28367234988907908,0,10.234419989634365,0,18.977518303778371,0,-1.3095696080783494,2,207.11445656504418,2.6683179265817989,7.3021993766020650,1.1712428754655064,0.92229385435906241,0.72960210482618404,0.50684474124741041,-1057.3555210467439,-1.7969358103120021E-002,93.559090884961449,171.05585727930534,204.71017288778165,256.27284466269356,93.176658962022572,96.430000000000007,18.391000000000020,0.75285773566151426,18.559410220676000,5.2978764150868170E-002
20220918143000,437.83198367753675,21.904101951278548,0.40066774495799168,0,26.180758815847280,1,45.831020707570879,1,-5.3467432728547335,0,217.60564447971893,2.8666749841671111,7.1846150436608163,1.2190194303636352,1.1281149165032724,0.71897732711275797,0.60257202208422433,-694.74289137593155,-2.7348246719546398E-002,108.71511114762873,198.76589608420136,237.87201209458016,297.78753222261179,93.210058186631940,95.056666666666672,18.687999999999988,1.0620428169228762,18.648591379801474,0.13565156538230114
20220918150000,438.10764040206885,21.981398289613793,0.18991233254255815,0,8.3522376592294254,1,21.541827084050038,1,-2.3461707381736110,0,235.73279073348888,2.5539569929698418,7.5895667221351193,1.0413633012117334,0.81469675493116767,0.57511831220176091,0.41493103197972148,-711.16317764608675,-2.6716793834699111E-002,96.433932184543906,176.31198405854784,211.00041420902406,264.14748036970013,93.227392529513892,94.480000000000004,18.844666666666683,1.1976075507790438,18.817994696723133,7.6770219334532777E-002
20220918153000,437.27877048898063,21.647348607315482,0.27098654755845536,0,-2.3089370754834575,2,36.945045218102848,0,-0.73324060856118067,2,239.74706128925010,2.6588246772273361,7.1802751206251223,1.0220031428756631,0.83293874864639139,0.66105304452494984,0.49568761047433724,4386.6033748194368,4.3313694848880853E-003,99.456301092144699,181.83783835676519,217.61345048110977,272.42621705092017,93.256517565104161,92.060000000000002,19.019999999999982,1.7416060149798456,18.963563117980982,6.5532888025276279E-002
20220918160000,435.22476918564280,21.508037588810918,0.29541710366948848,0,5.3677418664452645,2,51.887504597476003,0,-3.1980979571797201,1,227.19270247162939,2.6657473812650769,6.9204110498072540,1.0719102667336873,1.0897970770082497,0.64534868764350084,0.51776801494913360,-2150.5189990287267,-8.8350765599286840E-003,104.98506696434079,191.94618568057490,229.71056051978002,287.57036332403726,93.263065907986103,89.876666666666665,19.302666666666653,2.2599744773188557,19.208156464470790,0.13254877409726995
20220918163000,432.20045697456356,21.333603589113217,0.48154049890543710,0,71.815308494972086,0,183.82077871772304,1,-12.367704816997307,0,223.36327468736405,3.2525073258316293,7.9170261744111015,1.3512673762218643,1.0409814151576671,0.86214278394830934,0.66199391445086686,-335.89265034287325,-5.6565691391595313E-002,101.36189924573675,185.32187954089073,221.78295794197342,277.64594562016720,93.243151810122342,84.846666666666664,20.096000000000004,3.5536204218990930,19.916059183572202,0.26958762468502051
20220918170000,431.35547477122861,20.669497898870166,0.66636770187491534,0,31.922040653940815,0,139.54526969563517,0,-10.329755986363407,0,233.13587623612327,3.5983751059820879,9.7524229205061612,1.5856556344016866,1.2042887446767860,0.92356209035246672,0.77892916091205033,-1230.8487405549411,-1.5436502775664905E-002,109.26482932620955,199.77095623826787,239.07481240305265,299.29329547934248,93.241896597222222,81.144000000000005,20.305999999999983,4.4797178570350047,20.110826958550376,0.13299026727847704
20220918173000,430.86406917349774,20.848055340998929,0.57141085230874755,0,80.364246736004418,0,141.23797677787948,0,-13.625476935512724,0,236.26727282887231,3.2669083615828569,10.503289560990311,1.3527838934657084,1.2140516840579230,0.91513830576144806,0.72155857199569939,-388.65103640646032,-4.8887043183204991E-002,103.53395028796864,189.29308158624008,226.53547253110190,283.59552993185923,93.239231741531583,80.923333333333332,20.488999999999976,4.5836288523473829,20.377160658944774,0.28278912814332130
20220918180000,432.59915295529282,21.040225044628709,0.47399974530919736,0,83.538207562734456,1,49.356914586359387,0,-10.672833892261352,0,243.64917858302420,3.3347840855650870,8.3469581617178807,1.3595239922344646,1.0944669218360761,0.85345725951768803,0.65717107216754922,-282.47531058652299,-6.7262515653311386E-002,101.59029672074840,185.73946296885055,222.28269865294567,278.27156168891440,93.241542235026046,81.797333333333327,20.463999999999999,4.3668892611688124,20.448385872734889,0.32411900271303062
20220918183000,433.01450765109462,21.010663426339409,0.54813102614829934,0,61.975053901009240,0,52.976493352937432,0,-10.520437623852974,0,241.40949983901953,3.6716576701709660,9.1691422549200823,1.4097220300733380,1.2315484497260991,0.88195205112292363,0.70685937354823281,-473.80286045975777,-4.0101066467946651E-002,104.89754817565044,191.78617342216293,229.51906671416194,287.33063580288501,93.237465633463543,81.038333333333327,20.591666666666640,4.5849300291253305,20.605392459445511,0.28472878089180237
20220918190000,435.49114093766462,21.204161851984964,0.64916646638099473,1,-87.576887628929171,2,224.00913652922284,1,-1.9060578961456738,2,282.58985882935110,2.6754872734898933,7.9138210478609903,0.97565151105446590,1.4561922455843408,0.74194579532515348,0.76793064733927296,429.95130039007944,4.4191051365031292E-002,128.71073121467208,235.32426684268813,281.62304475431279,352.55863342619682,93.243570217013882,87.069999999999993,19.580666666666673,2.9368817746696165,19.707745429145064,0.33514059415482200
20220918193000,429.09005786484892,20.632280154924452,0.71194265545705882,0,48.758040400419475,0,186.44880700869842,0,-12.279955222483579,0,285.23802337391317,3.7238204016049332,9.9341607666585450,1.5548583624445134,1.2434792806250974,0.95575436925244017,0.80451157034195286,-887.88132027005588,-2.1399256371584668E-002,109.09471239011415,199.45992822307147,238.70259130652607,298.82731883585330,93.244686131727434,83.206666666666663,19.871666666666670,3.8838869590928358,20.056926666259812,0.21279519344045733
20220918200000,425.51914266350400,20.207093496421571,0.50584189657553735,0,90.390306532225594,0,160.00033592276966,0,-15.387147588818872,0,270.43574194831433,2.7746361219920579,8.5423638530833976,1.2243820390830302,1.1992058755585571,0.83396514589897530,0.67841278210020994,-287.17369459267542,-6.6162048814914706E-002,106.15288382384217,194.08132735582760,232.26577978226456,290.76919462731985,93.247894187717037,80.013333333333335,20.168000000000006,4.7080099195588465,20.342366418626625,0.30394108627264266
20220918203000,424.37646752996511,19.913609713305988,0.47814210932316614,0,92.463396428715271,1,164.59665898534044,0,-12.628344507877667,0,297.82947069600993,3.0029230803572471,7.2011496994167965,1.2284340717076059,1.1179764512821591,0.74217797919835360,0.65980440219195746,-258.20311696218283,-7.3585478841383598E-002,113.96739336069757,208.36874309918610,249.36416737016728,312.17434691889241,93.224610948133673,78.044666666666672,20.330333333333328,5.2238879754174672,20.525714658949141,0.31201642559486636
20220918210000,424.29422512697749,19.797567819857463,0.44055074522548116,0,8.6814735309390549,1,145.17224267472452,1,-6.3922315274157215,0,291.34170555013850,3.0079379841062268,8.3465770617762018,1.2452258011074477,1.0092812191664557,0.68955693011293473,0.63277787660489049,-2426.0526390286818,-7.8316519989471561E-003,116.89604756048718,213.72325702275151,255.77215297473694,320.19638449657975,93.244687152777786,79.756333333333330,19.888666666666666,4.6867999070565203,20.235421758863708,0.15675691090374977
20220918213000,424.19139322930818,19.294240122451111,0.62385702461596149,0,38.538031241561455,0,164.74184630190229,0,-6.3670238858809389,1,278.34538838105618,3.5017107779679217,8.9938146718251044,1.4337956687809223,1.2795155793075965,0.84302595170194627,0.75261735031475685,-919.63886336012513,-2.0660283897288616E-002,114.35141034304134,209.07084861884528,250.20440835694745,313.22622892771858,93.270098620876738,78.539666666666662,19.725666666666655,4.9185150434934233,20.007241358439217,0.21922040945754939
20220918220000,422.84224542861722,18.946350293637913,0.31237973510188777,1,-46.002270009154643,1,117.99636758422575,1,1.6930437223453565,2,298.47615481306173,2.2236336886305641,6.2804721808569450,0.91926337646187550,1.1312186372269994,0.58563393674026720,0.53210833226685295,272.26076939154109,6.9786036535715135E-002,115.97221686787920,212.03419987597678,253.75078296126219,317.66586910420108,93.273282971424052,79.333666666666673,19.271666666666647,4.6047410005501339,19.638250068893171,0.18078332995736515
20220918223000,425.93568514045165,19.529980052109192,0.14011666464902006,0,-1.2436105719825443,2,20.127437799796638,0,-1.4881718871083918,0,307.00696083244065,2.2936025483199711,4.6407605573989743,0.74588949154045669,0.62191068010279216,0.43809786701132447,0.35604727421710636,3017.7532453165841,6.2960747468293297E-003,106.07282149831232,193.93494789018996,232.09060094773349,290.54989151396364,93.285477301690378,84.693333333333328,18.712333333333333,3.2935458643096762,19.193768990618082,7.9366581892657856E-002